Location: Fort Worth, Tx
(32.7431°N, 97.3695°W)
Time: 01:26:52
(UTC-04:00)

Vanguard 2 - Pass Details

Date: 02 March 2024
Orbit: 552 x 2916 km, 32.9° (Epoch: 24 April)

Event Time Altitude Azimuth Distance (km) Brightness Sun altitude
Rises 00:02:11 0° 283° (WNW) 5,186 12.2 -55.4°
Reaches altitude 10° 00:05:10 10° 281° (W) 4,459 11.7 -55.9°
Enters shadow 00:11:05 36° 270° (W) 3,284 10.7 -56.8°
